This is the latest recevied weather packets stored in our database for station/object SPDRWX. If no packets are shown the sender has not sent any weather packets the latest 10 day(s).
| Time | Temp. | Humidity | Pressure | Rain* | Wind** | Luminosity | Snow |
|---|---|---|---|---|---|---|---|
| 1777565714 | 9.44° C | 43% | 1013.9 hPa | 0 mm | - | - | - |
| 1777565617 | 8.89° C | 44% | 1013.9 hPa | 0 mm | - | - | - |
| 1777565316 | 8.89° C | 45% | 1014 hPa | 0 mm | - | - | - |
| 1777565014 | 8.89° C | 46% | 1014 hPa | 0 mm | - | - | - |
| 1777564412 | 8.33° C | 49% | 1014 hPa | 0 mm | - | - | - |
| 1777563810 | 8.33° C | 50% | 1014 hPa | 0 mm | - | - | - |
| 1777562307 | 7.22° C | 53% | 1013.9 hPa | 0 mm | - | - | - |
| 1777561100 | 6.67° C | 53% | 1013.7 hPa | 0 mm | - | - | - |
| 1777560796 | 6.67° C | 53% | 1013.7 hPa | 0 mm | - | - | - |
| 1777559592 | 6.11° C | 55% | 1013.8 hPa | 0 mm | - | - | - |
| 1777548145 | 6.11° C | 54% | 1013.6 hPa | 0 mm | - | - | - |
| 1777543624 | 6.11° C | 48% | 1013.6 hPa | 0 mm | - | - | - |
| 1777540310 | 6.11° C | 51% | 1014 hPa | 0 mm | - | - | - |
| 1777536994 | 6.67° C | 60% | 1014.3 hPa | 0 mm | - | - | - |
| 1777533081 | 7.22° C | 63% | 1014.3 hPa | 0 mm | - | - | - |
| 1777532779 | 7.22° C | 64% | 1014.2 hPa | 0 mm | - | - | - |
| 1777531273 | 6.67° C | 64% | 1014.2 hPa | 0 mm | - | - | - |
| 1777529674 | 6.67° C | 65% | 1014.1 hPa | 0 mm | - | - | - |
| 1777529467 | 6.67° C | 65% | 1014.1 hPa | 0 mm | - | - | - |
| 1777529164 | 6.67° C | 65% | 1014.2 hPa | 0 mm | - | - | - |
| 1777528259 | 7.22° C | 65% | 1014.2 hPa | 0 mm | - | - | - |
| 1777527958 | 7.22° C | 65% | 1014.1 hPa | 0 mm | - | - | - |
| 1777523747 | 8.89° C | 57% | 1014.2 hPa | 0 mm | - | - | - |
| 1777523438 | 9.44° C | 55% | 1014.3 hPa | 0 mm | - | - | - |
| 1777522834 | 9.44° C | 54% | 1014.2 hPa | 0 mm | - | - | - |
* Rain since midnight (hover to see other rain measurements)
** Current wind speed in m/s (hover to see current wind gust speed)